This is the latest recevied weather packets stored in our database for station/object KI5MKI. If no packets are shown the sender has not sent any weather packets the latest 10 day(s).
| Time | Temp. | Humidity | Pressure | Rain* | Wind** | Luminosity | Snow |
|---|---|---|---|---|---|---|---|
| 1777081470 | 25.56° C | 76% | 1004.2 hPa | 0 mm | - | 0 W/m² | - |
| 1777081167 | 25.56° C | 76% | 1004.1 hPa | 0 mm | - | 0 W/m² | - |
| 1777080865 | 25.56° C | 76% | 1004.1 hPa | 0 mm | - | 0 W/m² | - |
| 1777080561 | 25.56° C | 75% | 1004.2 hPa | 0 mm | - | 0 W/m² | - |
| 1777080256 | 26.11° C | 74% | 1004.1 hPa | 0 mm | - | 0 W/m² | - |
| 1777079956 | 26.11° C | 74% | 1004.1 hPa | 0 mm | - | 0 W/m² | - |
| 1777079654 | 26.11° C | 74% | 1004.1 hPa | 0 mm | - | 0 W/m² | - |
| 1777079351 | 26.11° C | 74% | 1004.1 hPa | 0 mm | - | 1 W/m² | - |
| 1777079047 | 26.11° C | 74% | 1004.1 hPa | 0 mm | - | 2 W/m² | - |
| 1777078743 | 26.67° C | 73% | 1004.2 hPa | 0 mm | - | 5 W/m² | - |
| 1777078440 | 26.67° C | 72% | 1004.3 hPa | 0 mm | - | 8 W/m² | - |
| 1777078139 | 26.67° C | 72% | 1004.6 hPa | 0 mm | - | 11 W/m² | - |
| 1777077835 | 26.67° C | 72% | 1004.3 hPa | 0 mm | - | 14 W/m² | - |
| 1777077532 | 27.22° C | 71% | 1004.4 hPa | 0 mm | - | 21 W/m² | - |
| 1777077232 | 27.22° C | 71% | 1004.6 hPa | 0 mm | - | 32 W/m² | - |
| 1777076931 | 27.78° C | 70% | 1004.8 hPa | 0 mm | - | 37 W/m² | - |
| 1777076628 | 27.78° C | 68% | 1004.6 hPa | 0 mm | - | 46 W/m² | - |
| 1777076323 | 27.78° C | 67% | 1004.3 hPa | 0 mm | - | 56 W/m² | - |
| 1777076019 | 28.33° C | 67% | 1004.3 hPa | 0 mm | - | 64 W/m² | - |
| 1777075715 | 28.33° C | 67% | 1004.2 hPa | 0 mm | - | 74 W/m² | - |
| 1777075411 | 28.33° C | 66% | 1004.1 hPa | 0 mm | - | 83 W/m² | - |
| 1777075108 | 28.33° C | 66% | 1004 hPa | 0 mm | - | 95 W/m² | - |
| 1777074803 | 28.33° C | 65% | 1004.1 hPa | 0 mm | - | 109 W/m² | - |
| 1777074499 | 28.89° C | 65% | 1004 hPa | 0 mm | - | 121 W/m² | - |
| 1777074195 | 28.89° C | 64% | 1004.2 hPa | 0 mm | - | 134 W/m² | - |
* Rain latest hour (hover to see other rain measurements)
** Current wind speed in m/s (hover to see current wind gust speed)